This is the latest recevied weather packets stored in our database for station/object WZ8H. If no packets are shown the sender has not sent any weather packets the latest 10 day(s).
| Time | Temp. | Humidity | Pressure | Rain* | Wind** | Luminosity | Snow |
|---|---|---|---|---|---|---|---|
| 1777654212 | 6.11° C | 87% | 1012.5 hPa | 0.25 mm | - | 243 W/m² | - |
| 1777653884 | 6.11° C | 87% | 1012.4 hPa | 0.25 mm | - | 290 W/m² | - |
| 1777653581 | 6.11° C | 88% | 1012.3 hPa | 0.25 mm | - | 366 W/m² | - |
| 1777653256 | 6.11° C | 88% | 1012.3 hPa | 0.25 mm | - | 285 W/m² | - |
| 1777652956 | 6.11° C | 90% | 1012.3 hPa | 0.25 mm | - | 380 W/m² | - |
| 1777652649 | 6.11° C | 90% | 1012.3 hPa | 0.51 mm | - | 258 W/m² | - |
| 1777652323 | 6.11° C | 91% | 1012.4 hPa | 0.51 mm | - | 179 W/m² | - |
| 1777652000 | 6.11° C | 91% | 1012.4 hPa | 0.25 mm | - | 260 W/m² | - |
| 1777651693 | 6.11° C | 91% | 1012.3 hPa | 0.51 mm | - | 179 W/m² | - |
| 1777651368 | 6.11° C | 91% | 1012.4 hPa | 0.51 mm | - | 105 W/m² | - |
| 1777651047 | 5.56° C | 91% | 1012.2 hPa | 0.51 mm | - | 97 W/m² | - |
| 1777650737 | 6.11° C | 91% | 1012.2 hPa | 0.51 mm | - | 183 W/m² | - |
| 1777650433 | 6.11° C | 92% | 1012.2 hPa | 0.51 mm | - | 237 W/m² | - |
| 1777650133 | 6.11° C | 92% | 1012.1 hPa | 0.76 mm | - | 294 W/m² | - |
| 1777649830 | 5.56° C | 92% | 1012 hPa | 1.02 mm | - | 237 W/m² | - |
| 1777649533 | 5.56° C | 92% | 1012 hPa | 1.02 mm | - | 176 W/m² | - |
| 1777649205 | 5.56° C | 92% | 1012.1 hPa | 0.76 mm | - | 160 W/m² | - |
| 1777648878 | 5.56° C | 92% | 1012.2 hPa | 1.02 mm | - | 174 W/m² | - |
| 1777648253 | 5.56° C | 92% | 1012.3 hPa | 1.02 mm | - | 156 W/m² | - |
| 1777647956 | 5.56° C | 92% | 1012.3 hPa | 1.02 mm | - | 156 W/m² | - |
| 1777647623 | 5.56° C | 92% | 1012.3 hPa | 1.02 mm | - | 128 W/m² | - |
| 1777647321 | 5.56° C | 92% | 1012.3 hPa | 1.02 mm | - | 97 W/m² | - |
| 1777647004 | 5.56° C | 92% | 1012.3 hPa | 1.02 mm | - | 84 W/m² | - |
| 1777646704 | 5.56° C | 92% | 1012.2 hPa | 0.76 mm | - | 149 W/m² | - |
| 1777646404 | 5.56° C | 92% | 1012.3 hPa | 1.02 mm | - | 160 W/m² | - |
* Rain latest hour (hover to see other rain measurements)
** Current wind speed in m/s (hover to see current wind gust speed)